sat.trackr.live / text

‹ back to catalog

STARLINK-5160

NORAD 54080 · 2022-136AF

PAYLOAD ACTIVE UNKNOWN

§ Identity

Operator
Country
US
Launch date
2022-10-20
Launch site
AFETR
Launch vehicle
Mass (kg)
RCS (m²)

Purposes: comms

External: N2YO · Heavens-Above · Gunter

§ Orbital elements

Epoch: 2026-06-19T23:44:56.959296Z

Period
87.40 min
Inclination
53.1984°
Eccentricity
0.0003128
Mean motion
16.47549820 rev/d
Perigee alt
143.8 km
Apogee alt
147.8 km
Semi-major
6,523.9 km
B*
1.9106e-4
RAAN
209.3392°
Arg perigee
141.1034°
Mean anomaly
219.0243°
Rev number
20,278

§ Raw data

STARLINK-51601 54080U 22136AF  26170.98954814  .10552025  12517-4  19106-3 0  99952 54080  53.1984 209.3392 0003128 141.1034 219.0243 16.47549820202781

JSON: /api/v1/satellites/54080 · /tle

For live sub-satellite position, see the globe view (requires WebGL).

§ Visibility from observer

Set your observer location to see the next 7 days of passes ≥ 10°. The values pass through the URL so the page stays shareable.

No JS? Fill the form by hand. The geolocation button needs JavaScript.